Sigfox identifier Datetime Temperature Humidity SNR
002EECD6 2019-04-23 14:57:36 21.5 29 15.1
002EECD6 2019-04-23 13:50:26 21.5 29 15
002EECD6 2019-04-23 13:16:55 21.5 29 14.2
002EECD6 2019-04-23 12:09:52 21.3 29 14.2
002EECD6 2019-04-23 11:36:18 21.3 29 14.7
002EECD6 2019-04-23 11:02:43 21.2 28 15.3
002EECD6 2019-04-23 10:29:10 21.2 28 15.3
002EECD6 2019-04-23 09:55:37 21.1 28 15
002EECD6 2019-04-23 09:22:05 21.1 28 15
002EECD6 2019-04-23 08:48:30 21 28 15.1
002EECD6 2019-04-23 08:14:57 21 28 15.3
002EECD6 2019-04-23 07:41:25 21.1 28 15.4
002EECD6 2019-04-23 07:07:49 21 28 15.4
002EECD6 2019-04-23 06:34:16 21 28 15.6
002EECD6 2019-04-23 06:00:43 21 28 15.6
002EECD6 2019-04-23 05:27:10 21 28 15.7
002EECD6 2019-04-23 04:53:37 21 28 16.1
002EECD6 2019-04-23 04:20:04 21 28 15.8
002EECD6 2019-04-23 03:46:32 21.1 28 15.9
002EECD6 2019-04-23 03:13:00 21 28 15.7
002EECD6 2019-04-23 02:39:28 21 28 15.2
002EECD6 2019-04-23 02:05:57 21 28 15.2
002EECD6 2019-04-23 01:32:25 21 28 15.4
002EECD6 2019-04-23 00:58:53 21 28 15.9
002EECD6 2019-04-23 00:25:21 21 28 15.7
002EECD6 2019-04-22 23:51:49 21.1 28 16
002EECD6 2019-04-22 23:18:17 21.1 28 15.9
002EECD6 2019-04-22 22:44:44 21 28 16.3
002EECD6 2019-04-22 22:11:13 21 28 15.8
002EECD6 2019-04-22 21:37:41 21 28 15.3
002EECD6 2019-04-22 21:04:09 21 28 15.3
002EECD6 2019-04-22 20:30:36 21 28 15.2
002EECD6 2019-04-22 19:57:07 21 28 15.3
002EECD6 2019-04-22 19:23:32 21 28 15.3
002EECD6 2019-04-22 18:50:00 21 28 15.1
002EECD6 2019-04-22 18:16:27 21 28 14.8
002EECD6 2019-04-22 17:42:55 21.1 28 14.7
002EECD6 2019-04-22 17:09:23 21 28 14.5
002EECD6 2019-04-22 16:35:51 21 28 14.5
002EECD6 2019-04-22 16:02:19 21 28 14.5
002EECD6 2019-04-22 15:28:46 21 28 14
002EECD6 2019-04-22 14:55:14 21 28 14
002EECD6 2019-04-22 14:21:41 21 27 14.1
002EECD6 2019-04-22 13:48:09 21.1 27 14.3
002EECD6 2019-04-22 13:14:36 21.1 27 14.4
002EECD6 2019-04-22 12:41:03 21.1 27 14.7
002EECD6 2019-04-22 12:07:30 21.1 27 14.7
002EECD6 2019-04-22 11:33:58 21.2 27 14.5
002EECD6 2019-04-22 11:00:26 21.2 27 13.9
002EECD6 2019-04-22 10:26:53 21.2 27 13.9
002EECD6 2019-04-22 09:53:20 21.2 27 13.8
002EECD6 2019-04-22 09:19:49 21.2 27 13.8
002EECD6 2019-04-22 08:46:18 21.2 27 13.3
002EECD6 2019-04-22 08:12:47 21.1 27 13.4
002EECD6 2019-04-22 07:39:19 21.2 27 13.5
002EECD6 2019-04-22 07:05:44 21.2 27 13.5
002EECD6 2019-04-22 06:32:12 21.2 27 13.7
002EECD6 2019-04-22 05:58:40 21.2 27 13.5
002EECD6 2019-04-22 05:25:09 21.2 27 13.8
002EECD6 2019-04-22 04:51:36 21.2 27 13.8
002EECD6 2019-04-22 04:18:04 21.3 27 14
002EECD6 2019-04-22 03:44:33 21.3 27 14.2
002EECD6 2019-04-22 03:10:59 21.3 27 14.2
002EECD6 2019-04-22 02:37:26 21.3 27 14.2
002EECD6 2019-04-22 02:03:55 21.3 27 14.1
002EECD6 2019-04-22 01:30:23 21.3 27 14.8
002EECD6 2019-04-22 00:56:50 21.3 27 14.6
002EECD6 2019-04-22 00:23:19 21.3 27 14.7
002EECD6 2019-04-21 23:49:47 21.3 27 15.1
002EECD6 2019-04-21 23:16:14 21.3 27 15.4
002EECD6 2019-04-21 22:42:41 21.3 27 15.8
002EECD6 2019-04-21 22:09:08 21.3 27 15.8
002EECD6 2019-04-21 21:35:37 21.3 27 15.6
002EECD6 2019-04-21 21:02:02 21.3 27 15.8
002EECD6 2019-04-21 20:28:30 21.3 27 15.7
002EECD6 2019-04-21 19:54:58 21.3 27 16.1
002EECD6 2019-04-21 19:21:25 21.3 27 16.3
002EECD6 2019-04-21 18:47:53 21.3 27 16.2
002EECD6 2019-04-21 18:14:22 21.2 27 16.2
002EECD6 2019-04-21 17:40:50 21.2 27 19.1
002EECD6 2019-04-21 17:07:19 21.2 27 19
002EECD6 2019-04-21 16:33:47 21.2 27 19
002EECD6 2019-04-21 16:00:15 21.1 27 19
002EECD6 2019-04-21 15:26:43 21 27 19
002EECD6 2019-04-21 14:53:11 21 27 19.1
002EECD6 2019-04-21 14:19:39 21 27 19.1
002EECD6 2019-04-21 13:46:05 21 27 19.1
002EECD6 2019-04-21 13:12:33 21 27 19.1
002EECD6 2019-04-21 12:38:59 21 27 19.3
002EECD6 2019-04-21 12:05:26 21 27 19.2
002EECD6 2019-04-21 11:31:53 21 27 19
002EECD6 2019-04-21 10:58:21 21 27 19
002EECD6 2019-04-21 10:24:49 21 27 18.9
002EECD6 2019-04-21 09:51:18 21 27 18.8
002EECD6 2019-04-21 09:17:45 21 27 18.6
002EECD6 2019-04-21 08:44:12 21 27 18.4
002EECD6 2019-04-21 08:10:39 21 26 18.4
002EECD6 2019-04-21 07:37:06 21 26 20.4
002EECD6 2019-04-21 07:03:34 21 26 20.4
002EECD6 2019-04-21 06:30:00 21 26 20.3
002EECD6 2019-04-21 05:56:26 21.1 26 20.2
002EECD6 2019-04-21 05:22:53 21.2 26 20.1
002EECD6 2019-04-21 04:49:22 21.1 26 20.2
002EECD6 2019-04-21 04:15:47 21.1 26 20.2
002EECD6 2019-04-21 03:42:14 21.2 26 18.1
002EECD6 2019-04-21 03:08:40 21.1 26 18.2
002EECD6 2019-04-21 02:35:07 21.1 26 18.2
002EECD6 2019-04-21 02:01:34 21.2 26 18.1
002EECD6 2019-04-21 01:28:01 21.2 26 18.1
002EECD6 2019-04-21 00:54:29 21.2 26 17.9
002EECD6 2019-04-21 00:20:57 21.1 26 17.9
002EECD6 2019-04-20 23:47:24 21.2 26 17.8
002EECD6 2019-04-20 23:13:53 21.1 26 17.8
002EECD6 2019-04-20 22:40:20 21.2 26 17.6
002EECD6 2019-04-20 22:06:49 21.1 26 17.5
002EECD6 2019-04-20 21:33:17 21.2 26 17.5
002EECD6 2019-04-20 20:59:45 21.2 26 17.5
002EECD6 2019-04-20 20:26:17 21.1 26 17.5
002EECD6 2019-04-20 19:52:43 21.1 26 17.4
002EECD6 2019-04-20 19:19:11 21.1 26 17.4
002EECD6 2019-04-20 18:45:39 21.2 26 17.4
002EECD6 2019-04-20 18:12:07 21.2 26 17.3
002EECD6 2019-04-20 17:38:34 21.1 26 11.4
002EECD6 2019-04-20 17:05:01 21.1 26 10.7
002EECD6 2019-04-20 16:31:29 21.1 26 10.9
002EECD6 2019-04-20 15:57:57 21.1 26 10.7
002EECD6 2019-04-20 15:24:25 21 26 10.3
002EECD6 2019-04-20 14:50:56 21 26 10
002EECD6 2019-04-20 14:17:24 21 26 9.3
002EECD6 2019-04-20 13:43:51 21 25 9.4
002EECD6 2019-04-20 13:10:17 21 25 8.4
002EECD6 2019-04-20 12:36:44 21 25 9
002EECD6 2019-04-20 12:03:16 21 25 9.7
002EECD6 2019-04-20 10:22:40 21 25 10.8
002EECD6 2019-04-20 09:49:05 21 25 11.3
002EECD6 2019-04-20 09:15:30 21 25 11.3
002EECD6 2019-04-20 08:08:25 20.9 25 11.3
002EECD6 2019-04-20 07:34:57 21 25 11.9
002EECD6 2019-04-20 07:01:23 20.9 25 12
002EECD6 2019-04-20 06:27:52 21 25 12
002EECD6 2019-04-20 05:54:19 21 25 12.4
002EECD6 2019-04-20 05:20:47 21 25 12.4
002EECD6 2019-04-20 04:47:18 20.9 25 12.7
002EECD6 2019-04-20 03:40:11 20.8 25 13.1
002EECD6 2019-04-20 03:06:39 20.8 25 13.1
002EECD6 2019-04-20 01:59:40 20.8 25 13.6
002EECD6 2019-04-20 01:26:09 20.8 25 13.6
002EECD6 2019-04-20 00:52:35 20.8 25 18
002EECD6 2019-04-20 00:19:01 20.8 25 18
002EECD6 2019-04-19 23:45:30 20.8 25 18.1
002EECD6 2019-04-19 23:11:58 20.8 26 18.1
002EECD6 2019-04-19 22:38:31 20.8 26 18.1
002EECD6 2019-04-19 22:04:54 20.8 26 18.1
002EECD6 2019-04-19 21:31:28 20.8 26 18.1
002EECD6 2019-04-19 20:57:53 20.8 26 18.1
002EECD6 2019-04-19 20:24:23 20.8 26 18.1
002EECD6 2019-04-19 19:50:50 20.8 26 18
002EECD6 2019-04-19 18:43:51 20.8 26 17.9
002EECD6 2019-04-19 18:10:16 20.8 26 17.7
002EECD6 2019-04-19 17:36:41 20.8 26 17.6
002EECD6 2019-04-19 17:03:13 20.8 26 17.7
002EECD6 2019-04-19 16:29:37 20.8 26 17.7
002EECD6 2019-04-19 15:56:05 20.8 26 17.6
002EECD6 2019-04-19 15:22:33 20.8 26 17.7
002EECD6 2019-04-19 14:49:02 20.9 26 17.7
002EECD6 2019-04-19 14:15:27 20.9 27 17.7
002EECD6 2019-04-19 13:41:54 20.9 27 17.6
002EECD6 2019-04-19 13:08:22 20.9 27 17.5
002EECD6 2019-04-19 12:34:49 21 27 17.4
002EECD6 2019-04-19 12:01:16 21 27 17.5
002EECD6 2019-04-19 11:27:43 21 27 17.3
002EECD6 2019-04-19 10:54:14 21 27 17.3
002EECD6 2019-04-19 10:20:38 21 27 11.6
002EECD6 2019-04-19 09:47:07 21 27 11.4
002EECD6 2019-04-19 09:13:35 21.1 27 12.3
002EECD6 2019-04-19 08:40:03 21 28 12.6
002EECD6 2019-04-19 08:06:31 21.1 28 13.3
002EECD6 2019-04-19 07:33:01 21.1 28 13.8
002EECD6 2019-04-19 06:59:28 21.1 28 13.8
002EECD6 2019-04-19 06:25:58 21.1 28 13.8
002EECD6 2019-04-19 05:52:27 21.1 28 13.8
002EECD6 2019-04-19 05:18:56 21.1 28 13.9
002EECD6 2019-04-19 04:45:27 21.2 28 13.9
002EECD6 2019-04-19 04:11:55 21.2 28 13.9
002EECD6 2019-04-19 03:38:27 21.2 28 13.8
002EECD6 2019-04-19 03:04:53 21.3 28 18
002EECD6 2019-04-19 02:31:23 21.2 28 20.1
002EECD6 2019-04-19 01:57:52 21.2 28 20.6
002EECD6 2019-04-19 01:24:21 21.2 28 21.1
002EECD6 2019-04-19 00:50:49 21.3 28 21.5
002EECD6 2019-04-19 00:17:18 21.3 28 21.9
002EECD6 2019-04-18 23:43:47 21.2 28 22.2
002EECD6 2019-04-18 23:10:15 21.3 28 22.4
002EECD6 2019-04-18 22:36:47 21.2 28 22.7
002EECD6 2019-04-18 22:03:13 21.3 28 23
002EECD6 2019-04-18 21:29:43 21.2 28 23.2
002EECD6 2019-04-18 20:56:15 21.3 28 23.3
002EECD6 2019-04-18 20:22:40 21.3 28 23.5
002EECD6 2019-04-18 19:49:10 21.3 29 23.8
002EECD6 2019-04-18 19:15:39 21.3 29 24.2
002EECD6 2019-04-18 18:42:09 21.4 29 24.5
002EECD6 2019-04-18 18:08:38 21.5 29 24.7
002EECD6 2019-04-18 17:35:09 21.5 29 25
002EECD6 2019-04-18 17:01:41 21.5 29 25.2
002EECD6 2019-04-18 16:28:09 21.5 29 25.3
002EECD6 2019-04-18 15:54:43 21.5 29 25.5
002EECD6 2019-04-18 15:21:08 21.5 29 25.7
002EECD6 2019-04-18 14:47:37 21.7 29 26.1
002EECD6 2019-04-18 14:14:08 21.7 29 26.1
002EECD6 2019-04-18 13:40:33 21.7 29 26.5
002EECD6 2019-04-18 13:07:04 21.9 29 26.2
002EECD6 2019-04-18 12:33:31 22.1 28 26
002EECD6 2019-04-18 12:00:01 22.3 22 26.1
002EECD6 2019-04-18 11:26:29 22.3 22 26
002EECD6 2019-04-18 10:52:59 22.2 23 26
002EECD6 2019-04-18 10:19:28 22.1 23 26.1
002EECD6 2019-04-18 09:45:57 22.1 23 26.3
002EECD6 2019-04-18 09:12:26 22.1 23 26.3
002EECD6 2019-04-18 08:38:55 22.1 22 26.3
002EECD6 2019-04-18 08:05:24 22.1 22 26.4
002EECD6 2019-04-18 07:31:53 22.2 22 26.4
002EECD6 2019-04-18 06:58:22 22.2 23 26.5
002EECD6 2019-04-18 06:24:50 22.1 23 26.6
002EECD6 2019-04-18 05:51:19 22.3 23 26.8
002EECD6 2019-04-18 05:17:47 22.2 23 26.8
002EECD6 2019-04-18 04:44:17 22.3 23 26.7
002EECD6 2019-04-18 04:10:46 22.3 23 26.9
002EECD6 2019-04-18 03:37:16 22.3 23 26.8
002EECD6 2019-04-18 03:03:45 22.3 23 26.8
002EECD6 2019-04-18 02:30:14 22.3 23 26.8
002EECD6 2019-04-18 01:56:44 22.3 23 26.7
002EECD6 2019-04-18 01:23:13 22.3 23 26.8
002EECD6 2019-04-18 00:49:41 22.4 23 26.4
002EECD6 2019-04-18 00:16:10 22.5 23 26.5
002EECD6 2019-04-17 23:42:39 22.5 23 26.3
002EECD6 2019-04-17 23:09:08 22.5 23 26.3
002EECD6 2019-04-17 22:35:37 22.5 23 26.3
002EECD6 2019-04-17 22:02:07 22.6 23 26.2
002EECD6 2019-04-17 21:28:35 22.7 23 26.2
002EECD6 2019-04-17 20:55:05 22.7 23 26.3
002EECD6 2019-04-17 20:21:34 22.8 23 26.2
002EECD6 2019-04-17 19:48:04 22.8 23 26.1
002EECD6 2019-04-17 19:14:34 22.8 23 26.1
002EECD6 2019-04-17 18:41:04 22.8 23 26
002EECD6 2019-04-17 18:07:32 22.9 22 26.1
002EECD6 2019-04-17 17:34:00 22.9 22 26.1
002EECD6 2019-04-17 17:00:29 22.9 23 26.1
002EECD6 2019-04-17 16:26:57 22.9 23 25.9
002EECD6 2019-04-17 15:53:25 22.9 23 25.7
002EECD6 2019-04-17 15:19:54 22.8 23 25.6
002EECD6 2019-04-17 14:46:22 22.8 24 25.6
002EECD6 2019-04-17 14:12:52 22.7 24 25.4
002EECD6 2019-04-17 13:39:21 22.5 24 25.4
002EECD6 2019-04-17 13:05:50 22.5 24 25.7
002EECD6 2019-04-17 12:32:19 22.3 24 25.8
002EECD6 2019-04-17 11:58:48 22.3 23 25.8
002EECD6 2019-04-17 11:25:16 22.3 23 25.7
002EECD6 2019-04-17 10:51:46 22.2 23 25.9
002EECD6 2019-04-17 10:18:15 22.1 22 26.2
002EECD6 2019-04-17 09:44:46 22.1 22 26.3
002EECD6 2019-04-17 09:11:15 22.1 22 26.3
002EECD6 2019-04-17 08:37:45 22.1 22 26.3
002EECD6 2019-04-17 08:04:14 22.1 21 26.3
002EECD6 2019-04-17 07:30:42 22.1 20 26.3
002EECD6 2019-04-17 06:57:10 22.1 20 26.2
002EECD6 2019-04-17 06:23:38 22.1 20 26.2
002EECD6 2019-04-17 05:50:05 22.1 20 26.2
002EECD6 2019-04-17 05:16:33 22.1 21 26.5
002EECD6 2019-04-17 04:43:02 22.1 21 26.5
002EECD6 2019-04-17 04:09:31 22.1 21 26.3
002EECD6 2019-04-17 03:36:00 22.1 21 26.2
002EECD6 2019-04-17 03:02:29 22.2 21 26.3
002EECD6 2019-04-17 02:28:56 22.1 21 26.2
002EECD6 2019-04-17 01:55:25 22.2 21 26.1
002EECD6 2019-04-17 01:21:53 22.2 21 26.1
002EECD6 2019-04-17 00:48:22 22.3 21 26.1
002EECD6 2019-04-17 00:14:50 22.3 21 26
002EECD6 2019-04-16 23:41:18 22.3 21 26.1
002EECD6 2019-04-16 23:07:47 22.3 21 25.8
002EECD6 2019-04-16 22:34:15 22.3 21 25.6
002EECD6 2019-04-16 22:00:42 22.4 21 26.1
002EECD6 2019-04-16 21:27:11 22.5 21 26.1
002EECD6 2019-04-16 20:53:39 22.5 21 26
002EECD6 2019-04-16 20:20:07 22.5 20 25.7
002EECD6 2019-04-16 19:46:36 22.5 20 25.6
002EECD6 2019-04-16 19:13:06 22.5 20 25.7
002EECD6 2019-04-16 18:39:36 22.5 20 25.8
002EECD6 2019-04-16 18:06:05 22.6 20 25.8
002EECD6 2019-04-16 17:32:34 22.7 19 25.9
002EECD6 2019-04-16 16:59:02 22.7 20 25.9
002EECD6 2019-04-16 16:25:33 22.7 20 25.8
002EECD6 2019-04-16 15:52:02 22.7 20 26
002EECD6 2019-04-16 15:18:31 22.6 20 25.6
002EECD6 2019-04-16 14:45:00 22.5 20 25.7
002EECD6 2019-04-16 14:11:29 22.5 20 25.7
002EECD6 2019-04-16 13:37:58 22.5 20 25.8
002EECD6 2019-04-16 13:04:26 22.3 20 25.8
002EECD6 2019-04-16 12:30:56 22.3 19 25.9
002EECD6 2019-04-16 11:57:25 22.3 19 26.1
002EECD6 2019-04-16 11:23:53 22.1 19 26
002EECD6 2019-04-16 10:50:22 22.1 19 26.1
002EECD6 2019-04-16 10:16:51 22.1 19 26.1
002EECD6 2019-04-16 09:43:19 22.1 19 26.3
002EECD6 2019-04-16 09:09:48 22.1 19 26.5
002EECD6 2019-04-16 08:36:17 22.1 19 26.6
002EECD6 2019-04-16 08:02:46 22.1 19 26.3
002EECD6 2019-04-16 07:29:14 22.1 18 26.3
002EECD6 2019-04-16 06:55:42 22.1 18 26.3
002EECD6 2019-04-16 06:22:10 22.1 18 26.3
002EECD6 2019-04-16 05:48:40 22.1 18 26.2
002EECD6 2019-04-16 05:15:09 22.1 18 26
002EECD6 2019-04-16 04:41:38 22.1 18 25.8
002EECD6 2019-04-16 04:08:06 22.1 18 25.7
002EECD6 2019-04-16 03:34:36 22.1 18 26
002EECD6 2019-04-16 03:01:05 22.1 18 26.1
002EECD6 2019-04-16 02:27:34 22.1 18 26.1
002EECD6 2019-04-16 01:54:01 22.1 18 25.8
002EECD6 2019-04-16 01:20:29 22.1 18 25.8
002EECD6 2019-04-16 00:46:57 22.1 18 25.8
002EECD6 2019-04-16 00:13:24 22.2 18 25.8
002EECD6 2019-04-15 23:39:52 22.3 18 25.8
002EECD6 2019-04-15 23:06:20 22.3 18 25.8
002EECD6 2019-04-15 22:32:48 22.3 18 25.8
002EECD6 2019-04-15 21:59:16 22.3 18 25.8
002EECD6 2019-04-15 21:25:44 22.3 18 25.8
002EECD6 2019-04-15 20:52:12 22.3 17 25.8
002EECD6 2019-04-15 20:18:42 22.4 17 25.9
002EECD6 2019-04-15 19:45:11 22.5 17 25.7
002EECD6 2019-04-15 19:11:40 22.5 17 25.4
002EECD6 2019-04-15 18:38:09 22.5 16 25.2
002EECD6 2019-04-15 18:04:36 22.5 16 25.2
002EECD6 2019-04-15 17:31:05 22.7 16 25.3
002EECD6 2019-04-15 16:57:34 22.7 16 25.3
002EECD6 2019-04-15 16:24:03 22.7 16 25.4
002EECD6 2019-04-15 15:50:33 22.7 16 25.4
002EECD6 2019-04-15 15:17:03 22.6 17 25.4
002EECD6 2019-04-15 14:43:33 22.5 17 25.5
002EECD6 2019-04-15 14:10:02 22.5 17 25.9
002EECD6 2019-04-15 13:36:30 22.5 17 25.7
002EECD6 2019-04-15 13:02:59 22.3 17 25.7
002EECD6 2019-04-15 12:29:25 22.3 17 25.9
002EECD6 2019-04-15 11:55:54 22.2 17 26.1
002EECD6 2019-04-15 11:22:20 22.1 17 26.2
002EECD6 2019-04-15 10:48:48 22.1 17 26.4
002EECD6 2019-04-15 10:15:16 22.1 18 26.3
002EECD6 2019-04-15 09:41:45 22.1 18 26.4
002EECD6 2019-04-15 09:08:13 22 18 26.7
002EECD6 2019-04-15 08:34:41 21.9 18 26.6
002EECD6 2019-04-15 08:01:11 21.9 18 26.5
002EECD6 2019-04-15 07:27:40 21.9 18 26.5
002EECD6 2019-04-15 06:54:09 21.9 18 26.5
002EECD6 2019-04-15 06:20:37 21.9 18 26.6
002EECD6 2019-04-15 05:47:07 21.7 18 26.6
002EECD6 2019-04-15 05:13:37 21.9 18 26.6
002EECD6 2019-04-15 04:40:05 21.8 18 26.8
002EECD6 2019-04-15 04:06:35 21.9 19 26.8
002EECD6 2019-04-15 03:33:04 21.8 19 26.8
002EECD6 2019-04-15 02:59:34 21.8 19 26.8
002EECD6 2019-04-15 02:26:04 21.8 19 26.8
002EECD6 2019-04-15 01:52:33 21.8 19 26.9
002EECD6 2019-04-15 01:19:03 21.9 19 26.8
002EECD6 2019-04-15 00:45:32 21.8 19 26.9
002EECD6 2019-04-15 00:12:01 21.8 19 26.7
002EECD6 2019-04-14 23:38:29 21.9 19 26.7
002EECD6 2019-04-14 23:04:59 21.9 19 26.5
002EECD6 2019-04-14 22:31:28 21.9 19 26.3
002EECD6 2019-04-14 21:57:56 21.9 19 26.3
002EECD6 2019-04-14 21:24:24 22 19 26.3
002EECD6 2019-04-14 20:50:51 22 19 26.2
002EECD6 2019-04-14 20:17:18 22.1 19 26.2
002EECD6 2019-04-14 19:43:46 22.1 19 26.2
002EECD6 2019-04-14 19:10:14 21.9 19 26
002EECD6 2019-04-14 18:36:41 21.9 19 26
002EECD6 2019-04-14 18:03:08 21.9 19 26.3
002EECD6 2019-04-14 17:29:35 21.9 19 26.3
002EECD6 2019-04-14 16:56:02 21.9 19 26.3
002EECD6 2019-04-14 16:22:28 21.9 19 26.3
002EECD6 2019-04-14 15:48:55 21.9 19 26.3
002EECD6 2019-04-14 15:15:23 21.9 19 26.3
002EECD6 2019-04-14 14:41:49 21.9 19 26.3
002EECD6 2019-04-14 14:08:17 21.9 19 26.3
002EECD6 2019-04-14 13:34:44 21.9 20 26.3
002EECD6 2019-04-14 13:01:12 21.9 20 26.3
002EECD6 2019-04-14 12:27:42 21.9 20 26.2
002EECD6 2019-04-14 11:54:11 21.9 20 26.3
002EECD6 2019-04-14 11:20:40 21.9 20 26.4
002EECD6 2019-04-14 10:47:09 21.9 20 26.3
002EECD6 2019-04-14 10:13:37 21.9 20 26.4
002EECD6 2019-04-14 09:40:05 21.9 20 26.2
002EECD6 2019-04-14 09:06:35 21.9 19 26.4
002EECD6 2019-04-14 08:33:02 21.9 19 26.4
002EECD6 2019-04-14 07:59:30 21.9 19 26.6
002EECD6 2019-04-14 07:25:58 21.9 19 26.6
002EECD6 2019-04-14 06:52:24 21.9 19 26.5
002EECD6 2019-04-14 06:18:51 21.9 19 26.7
002EECD6 2019-04-14 05:45:19 21.9 19 26.7
002EECD6 2019-04-14 05:11:46 21.9 19 26.6
002EECD6 2019-04-14 04:38:12 21.9 19 26.5
002EECD6 2019-04-14 04:04:40 21.9 19 26.3
002EECD6 2019-04-14 03:31:06 21.9 19 26.1
002EECD6 2019-04-14 02:57:35 21.9 19 26.3
002EECD6 2019-04-14 02:24:03 21.9 19 26.1
002EECD6 2019-04-14 01:50:29 21.9 19 26
002EECD6 2019-04-14 01:16:57 21.9 19 26
002EECD6 2019-04-14 00:43:26 21.9 19 25.9
002EECD6 2019-04-14 00:09:53 22 19 25.8
002EECD6 2019-04-13 23:36:21 22.1 19 26
002EECD6 2019-04-13 23:02:49 22.1 19 26.1
002EECD6 2019-04-13 22:29:17 22.1 19 26.2
002EECD6 2019-04-13 21:55:45 22.1 19 26
002EECD6 2019-04-13 21:22:13 22.1 19 26
002EECD6 2019-04-13 20:48:42 22.1 19 26
002EECD6 2019-04-13 20:15:09 22.1 19 26
002EECD6 2019-04-13 19:41:37 22.1 19 26.1
002EECD6 2019-04-13 19:08:06 22.1 19 25.9
002EECD6 2019-04-13 18:34:34 22.1 19 26.1
002EECD6 2019-04-13 18:01:04 22.2 19 25.9
002EECD6 2019-04-13 17:27:32 22.2 19 25.9
002EECD6 2019-04-13 16:54:00 22.3 19 26
002EECD6 2019-04-13 16:20:28 22.3 19 25.7
002EECD6 2019-04-13 15:46:57 22.3 19 25.8
002EECD6 2019-04-13 15:13:26 22.3 19 25.8
002EECD6 2019-04-13 14:39:54 22.3 19 25.8
002EECD6 2019-04-13 14:06:22 22.3 19 25.8
002EECD6 2019-04-13 13:32:50 22.3 19 25.9
002EECD6 2019-04-13 12:59:18 22.3 19 25.7
002EECD6 2019-04-13 12:25:47 22.3 19 25.8
002EECD6 2019-04-13 11:52:15 22.3 19 25.8
002EECD6 2019-04-13 11:18:43 22.3 20 25.9
002EECD6 2019-04-13 10:45:12 22.3 19 25.8
002EECD6 2019-04-13 10:11:40 22.3 19 25.9
002EECD6 2019-04-13 09:38:08 22.3 19 25.9
002EECD6 2019-04-13 09:04:36 22.3 19 25.9
002EECD6 2019-04-13 08:31:03 22.3 19 25.8
002EECD6 2019-04-13 07:57:31 22.3 19 26
002EECD6 2019-04-13 07:23:57 22.3 19 25.9
002EECD6 2019-04-13 06:50:24 22.3 19 25.9
002EECD6 2019-04-13 06:16:50 22.3 19 25.9
002EECD6 2019-04-13 05:43:16 22.3 19 25.8
002EECD6 2019-04-13 05:09:43 22.3 19 25.7
002EECD6 2019-04-13 04:36:09 22.3 19 25.8
002EECD6 2019-04-13 04:02:35 22.3 19 26.1
002EECD6 2019-04-13 03:29:01 22.3 19 26.1
002EECD6 2019-04-13 02:55:27 22.4 19 26
002EECD6 2019-04-13 02:21:53 22.5 20 26.1
002EECD6 2019-04-13 01:48:20 22.5 20 26.1
002EECD6 2019-04-13 01:14:48 22.5 20 26.2
002EECD6 2019-04-13 00:41:14 22.5 20 26.2
002EECD6 2019-04-13 00:07:40 22.5 20 26.2
002EECD6 2019-04-12 23:34:06 22.5 20 26.2
002EECD6 2019-04-12 23:00:33 22.6 20 26.4
002EECD6 2019-04-12 22:27:01 22.7 21 26.3
002EECD6 2019-04-12 21:53:29 22.7 21 26.4
002EECD6 2019-04-12 21:19:56 22.7 21 26.4
002EECD6 2019-04-12 20:46:25 22.7 21 26.5
002EECD6 2019-04-12 20:12:52 22.7 20 26.4
002EECD6 2019-04-12 19:39:18 22.7 20 26.4
002EECD6 2019-04-12 19:05:45 22.8 20 26.2
002EECD6 2019-04-12 18:32:12 22.9 18 26.3
002EECD6 2019-04-12 17:58:39 23 18 26.2
002EECD6 2019-04-12 17:25:06 23 19 26.5
002EECD6 2019-04-12 16:51:32 23 18 26.7
002EECD6 2019-04-12 16:17:59 22.9 19 26.9
002EECD6 2019-04-12 15:44:26 22.8 20 27.4
002EECD6 2019-04-12 15:10:52 22.6 20 28.2
002EECD6 2019-04-12 14:37:18 22.3 21 27.3
002EECD6 2019-04-12 14:03:43 21.9 21 25
002EECD6 2019-04-12 13:30:08 21.3 23 22.9
002EECD6 2019-04-12 12:56:33 20.6 40 0